Date String (YYYY-MM-DD hh:mm:ss) UTC,Instrument flags,absolute air pressure of the measurement (hPa),sample flow rate (lpm),inlet stack bypass flow (lpm),air temperature of the measurement (°C),ambient temperature measured by the external sensor (°C),aerosol sample conditioner tube jacket temperature (°C),OPC LED temperature (°C),internal box temperature (°C),relative humidity of the measurement (%),span deviation,mass concentration of particles derived from Lorenz-Mie calculation of OPC scattering (μg/m³),mass concentration of particles derived from Lorenz-Mie calculation of OPC scattering (μg/m³),mass concentration of particles derived from Lorenz-Mie calculation of OPC scattering (μg/m³)
DateTimeUTC,F1_M11,P_M11,Q1_M11,Q2_M11,T1_M11,T2_M11,T3_M11,T4_M11,T5_M11,U1_M11,ZSPAN_M11,X2_M11,X0_M11,X1_M11
2023-11-07 14:00:00,SystemResetWarning,0822.7,5.00,000.00,027.1,026.0,000.0,035.6,028.5,8.9,0000.0,0003.48,0010.17,0002.82
2023-11-07 14:01:00,SystemResetWarning,0822.9,5.00,000.00,027.1,026.0,000.0,035.6,028.5,8.8,0000.0,0003.50,0010.28,0002.84
2023-11-07 14:02:00,SystemResetWarning,0822.9,5.00,000.00,027.1,026.0,000.0,035.6,028.5,8.8,0000.0,0003.51,0009.63,0002.85
2023-11-07 14:03:00,SystemResetWarning,0823.0,5.00,000.00,027.1,026.0,000.0,035.6,028.5,8.9,0000.0,0003.45,0008.86,0002.84
2023-11-07 14:04:00,SystemResetWarning,0823.1,5.00,000.00,027.1,026.0,000.0,035.6,028.5,8.8,0000.0,0003.36,0008.56,0002.84
2023-11-07 14:05:00,SystemResetWarning,0822.9,5.00,000.00,027.1,026.0,000.0,035.6,028.5,8.8,0000.0,0003.33,0008.28,0002.84
2023-11-07 14:06:00,SystemResetWarning,0822.7,5.00,000.00,027.1,026.0,000.0,035.6,028.5,8.9,0000.0,0003.28,0008.01,0002.82
2023-11-07 14:07:00,SystemResetWarning,0822.5,5.01,000.00,027.1,026.0,000.0,035.6,028.6,8.9,0000.0,0003.25,0007.37,0002.81
2023-11-07 14:08:00,SystemResetWarning,0822.9,5.00,000.00,027.1,026.0,000.0,035.6,028.6,8.9,0000.0,0003.29,0007.53,0002.82
2023-11-07 14:09:00,SystemResetWarning,0823.0,5.00,000.00,027.1,026.0,000.0,035.6,028.5,9.0,0000.0,0003.29,0007.59,0002.81
2023-11-07 14:10:00,SystemResetWarning,0822.7,5.00,000.00,027.1,026.0,000.0,035.6,028.5,9.1,0000.0,0003.30,0007.32,0002.82
2023-11-07 14:11:00,SystemResetWarning,0822.9,5.00,000.00,027.1,026.0,000.0,035.6,028.5,9.4,0000.0,0003.31,0006.61,0002.84
2023-11-07 14:12:00,SystemResetWarning,0823.1,5.00,000.00,027.1,026.1,000.0,035.6,028.6,9.4,0000.0,0003.30,0006.47,0002.83
2023-11-07 14:13:00,SystemResetWarning,0822.9,5.00,000.00,027.2,026.1,000.0,035.6,028.6,9.2,0000.0,0003.29,0006.58,0002.82
2023-11-07 14:14:00,SystemResetWarning,0822.8,5.01,000.00,027.2,026.1,000.0,035.6,028.6,9.1,0000.0,0003.31,0007.45,0002.82
2023-11-07 14:15:00,SystemResetWarning,0822.8,5.00,000.00,027.2,026.1,000.0,035.6,028.6,8.9,0000.0,0003.32,0007.70,0002.82
2023-11-07 14:16:00,SystemResetWarning,0822.7,5.00,000.00,027.2,026.1,000.0,035.6,028.6,8.8,0000.0,0003.36,0007.82,0002.82
2023-11-07 14:17:00,SystemResetWarning,0822.9,5.00,000.00,027.2,026.1,000.0,035.6,028.6,8.8,0000.0,0003.37,0007.87,0002.84
2023-11-07 14:18:00,SystemResetWarning,0822.7,5.00,000.00,027.2,026.1,000.0,035.6,028.6,8.7,0000.0,0003.37,0008.20,0002.85
2023-11-07 14:19:00,SystemResetWarning,0822.7,5.01,000.00,027.2,026.1,000.0,035.6,028.6,8.6,0000.0,0003.40,0008.75,0002.86
2023-11-07 14:20:00,SystemResetWarning,0822.7,4.99,000.00,027.2,026.1,000.0,035.6,028.6,8.7,0000.0,0003.40,0008.78,0002.86
2023-11-07 14:21:00,SystemResetWarning,0822.7,4.99,000.00,027.2,026.1,000.0,035.6,028.6,8.8,0000.0,0003.39,0008.25,0002.86
2023-11-07 14:22:00,SystemResetWarning,0822.8,5.00,000.00,027.2,026.1,000.0,035.6,028.6,8.6,0000.0,0003.38,0008.20,0002.83
2023-11-07 14:23:00,SystemResetWarning,0822.7,5.00,000.00,027.2,026.1,000.0,035.6,028.6,8.6,0000.0,0003.40,0008.46,0002.83
2023-11-07 14:24:00,SystemResetWarning,0822.8,5.00,000.00,027.2,026.2,000.0,035.6,028.7,8.6,0000.0,0003.38,0008.65,0002.82
2023-11-07 14:25:00,SystemResetWarning,0822.8,5.01,000.00,027.2,026.2,000.0,035.6,028.7,8.6,0000.0,0003.38,0008.32,0002.79
2023-11-07 14:26:00,SystemResetWarning,0822.8,5.01,000.00,027.2,026.2,000.0,035.6,028.7,8.7,0000.0,0003.40,0008.26,0002.78
2023-11-07 14:27:00,SystemResetWarning,0823.2,4.99,000.00,027.2,026.2,000.0,035.6,028.7,8.6,0000.0,0003.37,0008.23,0002.78
2023-11-07 14:28:00,SystemResetWarning,0823.1,5.00,000.00,027.2,026.2,000.0,035.6,028.7,8.6,0000.0,0003.37,0009.20,0002.77
2023-11-07 14:29:00,SystemResetWarning,0822.8,4.99,000.00,027.2,026.2,000.0,035.6,028.7,8.6,0000.0,0003.37,0009.13,0002.77
2023-11-07 14:30:00,SystemResetWarning,0823.1,4.99,000.00,027.3,026.2,000.0,035.6,028.7,8.5,0000.0,0003.33,0008.50,0002.74
2023-11-07 14:31:00,SystemResetWarning,0823.2,5.00,000.00,027.3,026.3,000.0,035.6,028.7,8.6,0000.0,0003.29,0008.40,0002.71
2023-11-07 14:32:00,SystemResetWarning,0823.2,5.00,000.00,027.3,026.3,000.0,035.6,028.7,8.5,0000.0,0003.33,0008.33,0002.70
2023-11-07 14:33:00,SystemResetWarning,0823.2,5.00,000.00,027.3,026.3,000.0,035.6,028.7,8.5,0000.0,0003.33,0008.37,0002.69
2023-11-07 14:34:00,SystemResetWarning,0822.9,5.00,000.00,027.3,026.3,000.0,035.6,028.7,8.5,0000.0,0003.31,0008.30,0002.68
2023-11-07 14:35:00,SystemResetWarning,0823.0,5.00,000.00,027.3,026.3,000.0,035.6,028.7,8.4,0000.0,0003.31,0008.16,0002.67
2023-11-07 14:36:00,SystemResetWarning,0822.9,5.01,000.00,027.3,026.3,000.0,035.6,028.7,8.4,0000.0,0003.29,0007.88,0002.67
2023-11-07 14:37:00,SystemResetWarning,0823.3,5.00,000.00,027.3,026.3,000.0,035.7,028.8,8.4,0000.0,0003.28,0007.78,0002.67
2023-11-07 14:38:00,SystemResetWarning,0823.0,5.00,000.00,027.3,026.3,000.0,035.7,028.8,8.4,0000.0,0003.26,0007.70,0002.66
2023-11-07 14:39:00,SystemResetWarning,0823.2,5.00,000.00,027.3,026.3,000.0,035.7,028.8,8.3,0000.0,0003.25,0006.25,0002.64
2023-11-07 14:40:00,SystemResetWarning,0823.1,5.00,000.00,027.3,026.4,000.0,035.7,028.8,8.4,0000.0,0003.24,0006.15,0002.61
2023-11-07 14:41:00,SystemResetWarning,0822.9,5.00,000.00,027.4,026.4,000.0,035.7,028.8,8.3,0000.0,0003.22,0006.05,0002.59
2023-11-07 14:42:00,SystemResetWarning,0822.8,5.00,000.00,027.4,026.4,000.0,035.7,028.9,8.4,0000.0,0003.21,0006.33,0002.58
2023-11-07 14:43:00,SystemResetWarning,0822.9,4.99,000.00,027.4,026.4,000.0,035.7,028.9,8.6,0000.0,0003.16,0006.45,0002.57
2023-11-07 14:44:00,SystemResetWarning,0822.8,5.00,000.00,027.4,026.4,000.0,035.7,028.9,8.7,0000.0,0003.15,0006.96,0002.57
2023-11-07 14:45:00,SystemResetWarning,0822.9,4.99,000.00,027.4,026.4,000.0,035.7,028.9,8.4,0000.0,0003.14,0006.89,0002.56
2023-11-07 14:46:00,SystemResetWarning,0822.9,4.99,000.00,027.4,026.5,000.0,035.7,028.9,8.5,0000.0,0003.14,0007.22,0002.55
2023-11-07 14:47:00,SystemResetWarning,0822.8,5.01,000.00,027.4,026.5,000.0,035.7,028.9,8.4,0000.0,0003.16,0007.30,0002.54
2023-11-07 14:48:00,SystemResetWarning,0822.8,5.01,000.00,027.5,026.6,000.0,035.7,028.9,8.5,0000.0,0003.20,0007.55,0002.55
2023-11-07 14:49:00,SystemResetWarning,0822.9,5.00,000.00,027.5,026.6,000.0,035.8,029.0,8.6,0000.0,0003.21,0007.62,0002.56
2023-11-07 14:50:00,SystemResetWarning,0823.1,5.01,000.00,027.5,026.6,000.0,035.8,029.0,8.3,0000.0,0003.21,0007.65,0002.58
2023-11-07 14:51:00,SystemResetWarning,0822.8,5.00,000.00,027.5,026.6,000.0,035.8,029.0,8.3,0000.0,0003.23,0007.88,0002.61
2023-11-07 14:52:00,SystemResetWarning,0823.0,4.99,000.00,027.5,026.7,000.0,035.8,029.0,8.2,0000.0,0003.23,0007.72,0002.61
2023-11-07 14:53:00,SystemResetWarning,0822.9,4.99,000.00,027.5,026.7,000.0,035.8,029.1,8.3,0000.0,0003.24,0007.86,0002.63
2023-11-07 14:54:00,SystemResetWarning,0823.1,4.99,000.00,027.6,026.7,000.0,035.8,029.1,8.2,0000.0,0003.28,0008.19,0002.64
2023-11-07 14:55:00,SystemResetWarning,0822.9,5.00,000.00,027.6,026.7,000.0,035.8,029.1,8.6,0000.0,0003.30,0008.39,0002.64
2023-11-07 14:56:00,SystemResetWarning,0822.9,5.01,000.00,027.6,026.8,000.0,035.8,029.1,8.6,0000.0,0003.29,0008.44,0002.64
2023-11-07 14:57:00,SystemResetWarning,0823.0,5.01,000.00,027.6,026.8,000.0,035.9,029.1,8.8,0000.0,0003.29,0008.13,0002.65
2023-11-07 14:58:00,SystemResetWarning,0822.9,5.00,000.00,027.6,026.8,000.0,035.9,029.1,9.1,0000.0,0003.26,0008.54,0002.65
2023-11-07 14:59:00,SystemResetWarning,0823.0,5.00,000.00,027.6,026.8,000.0,035.9,029.2,8.9,0000.0,0003.25,0009.42,0002.64
